This demonstration page uses our WeatherBlox Daily Observations layout. Learn more.

Left ArrowRight Arrow

41.55636, -103.73856

Hourly Observations for February 16, 2016

Temp ( °F °C ) Dew Point ( °F °C ) Humidity (%) Winds ( mph kmh ) Pressure ( in mb ) Visibility ( mi km ) Precip ( " mm )
12:53 am 00:53 Cloudy 36 2.2 28 -2.2 73 73 NW 15 24 30.01 1016 10 16.0934 N/A
1:53 am 01:53 Cloudy 35 1.7 28 -2.2 76 76 WNW 12 19 30.02 1017 10 16.0934 N/A
2:53 am 02:53 Cloudy 35 1.7 28 -2.2 76 76 WNW 12 19 30.01 1016 10 16.0934 N/A
3:53 am 03:53 Cloudy 35 1.7 29 -1.7 78 78 WNW 12 19 30.01 1016 10 16.0934 N/A
4:53 am 04:53 Cloudy 35 1.7 28 -2.2 76 76 W 14 22 30.03 1017 10 16.0934 N/A
5:53 am 05:53 Cloudy 35 1.7 28 -2.2 76 76 WNW 10 17 30.04 1017 10 16.0934 N/A
6:53 am 06:53 Mostly Cloudy 33 0.6 28 -2.2 82 82 NW 5 7 30.05 1018 10 16.0934 N/A
7:53 am 07:53 Partly Cloudy 36 2.2 28 -2.2 73 73 WNW 7 11 30.05 1018 10 16.0934 N/A
8:53 am 08:53 Cloudy 36 2.2 29 -1.7 76 76 W 3 6 30.04 1017 10 16.0934 N/A
9:53 am 09:53 Mostly Cloudy 39 3.9 29 -1.7 67 67 NNW 6 9 30.03 1017 10 16.0934 N/A
10:53 am 10:53 Cloudy 41 5 27 -2.8 57 57 E 3 6 30.02 1017 10 16.0934 N/A
11:53 am 11:53 Mostly Sunny 44 6.7 26 -3.3 49 49 SE 8 13 29.98 1015 10 16.0934 N/A
12:53 pm 12:53 Sunny 45 7.2 30 -1.1 56 56 E 12 19 29.93 1014 10 16.0934 N/A
1:53 pm 13:53 Sunny 48 8.9 32 undefined 54 54 ESE 10 17 29.9 1013 10 16.0934 N/A
2:53 pm 14:53 Sunny 51 10.6 33 0.6 50 50 ESE 5 7 29.89 1012 10 16.0934 N/A
3:53 pm 15:53 Sunny 53 11.7 33 0.6 47 47 S 3 6 29.87 1012 10 16.0934 N/A
4:53 pm 16:53 Mostly Cloudy 56 13.3 33 0.6 42 42 WNW 14 22 29.86 1011 10 16.0934 N/A
5:53 pm 17:53 Mostly Cloudy 52 11.1 32 undefined 47 47 WNW 14 22 29.88 1012 10 16.0934 N/A
6:53 pm 18:53 Clear 48 8.9 33 0.6 56 56 W 10 17 29.93 1014 10 16.0934 N/A
7:53 pm 19:53 Clear 45 7.2 32 undefined 61 61 WNW 8 13 29.94 1014 10 16.0934 N/A
8:53 pm 20:53 Clear 38 3.3 31 -0.6 76 76 NW 7 11 29.98 1015 10 16.0934 N/A
9:53 pm 21:53 Clear 36 2.2 30 -1.1 79 79 WNW 7 11 29.98 1015 10 16.0934 N/A
10:53 pm 22:53 Mostly Cloudy 35 1.7 30 -1.1 82 82 N 10 17 29.99 1016 10 16.0934 N/A
11:53 pm 23:53 Clear 34 1.1 29 -1.7 82 82 NNW 6 9 30 1016 10 16.0934 N/A

Powered by AerisWeather